1312156830001,18.6716
1312156890001,18.6749
1312156950001,18.6749
1312157010001,18.6608
1312157070001,18.6054
1312157130001,18.7441
1312157190001,18.8290
1312157250001,18.7952
1312157310001,18.7758
1312157370001,18.7903
1312157430001,18.7648
1312157490001,18.7553
1312157550001,18.7315
1312157610001,18.6632
1312157670001,18.6747
1312157730001,18.7118
1312157790001,18.6822
1312157850001,18.5806
1312157910001,18.6377
1312157970001,18.6700
1312158030001,18.6666
1312158090001,18.6576
1312158150001,18.6159
1312158210001,18.6230
1312158270001,18.6356
1312158330001,18.6425
1312158390001,18.5760
1312158450001,18.5920
1312158510001,18.6515
1312158570001,18.6388
1312158630001,18.6097
1312158690001,18.6052
1312158750001,18.6593
1312158810001,18.6217
1312158870001,18.5823
1312158930001,18.6473
1312158990001,18.6333
1312159050001,18.6851
1312159110001,18.7066
1312159170001,18.7142
1312159230001,18.7171
1312159290001,18.7848
1312159350001,18.7847
1312159410001,18.9267
1312159470001,19.0495
1312159530001,19.1503
1312159590001,19.1311
1312159650001,19.0957
1312159710001,19.0899
1312159770001,19.0506
1312159830001,19.0736
1312159890001,19.0466
1312159950001,19.0423
1312160010001,19.0025
1312160070001,19.1392
1312160130001,19.0331
1312160190001,18.9945
1312160250001,19.0612
1312160310001,19.0377
1312160370001,18.9848
1312160430010,19.0246
1312160490010,19.0018
1312160550010,18.9779
1312160610010,18.9672
1312160670010,18.9054
1312160730010,18.9983
1312160790010,18.9632
1312160850010,18.9340
1312160910010,18.9422
1312160970010,18.8914
1312161030010,18.8688
1312161090010,18.8721
1312161150010,18.9660
1312161210010,19.0029
1312161270010,18.9784
1312161330010,18.9124
1312161390010,18.8097
1312161450010,18.8773
1312161510010,18.8571
1312161570010,18.8095
1312161630010,18.7894
1312161690010,18.7660
1312161750010,18.7178
1312161810010,18.6970
1312161870010,18.7042
1312161930010,18.6992
1312161990010,18.6879
1312162050010,18.6566
1312162110010,18.7200
1312162170010,18.6441
1312162230010,18.6927
1312162290010,18.6748
1312162350010,18.6711
1312162410010,18.6488
1312162470010,18.6094
1312162530010,18.5809
1312162590010,18.6180
1312162650010,18.5741
1312162710010,18.5734
1312162770010,18.5697
1312162830010,18.6211
1312162890010,18.5541
1312162950010,18.5678
1312163010010,18.5741
1312163070010,18.7546
1312163130010,18.7771
1312163190010,18.6869
1312163250010,18.6757
1312163310010,18.7040
1312163370010,18.6756
1312163430010,18.7341
1312163490010,18.6918
1312163550010,18.7409
1312163610010,18.7054
1312163670010,18.6394
1312163730010,18.5609
1312163790010,18.6192
1312163850010,18.6075
1312163910010,18.6630
1312163970010,18.5952
1312164030020,18.6179
1312164090020,18.6139
1312164150020,18.6176
1312164210020,18.5985
1312164270020,18.5792
1312164330020,18.6673
1312164390020,18.6488
1312164450020,18.6755
1312164510020,18.6387
1312164570020,18.6804
1312164630020,18.6570
1312164690020,18.6242
1312164750020,18.5867
1312164810020,18.5442
1312164870020,18.5751
1312164930020,18.5487
1312164990020,18.6681
1312165050020,18.5623
1312165110020,18.5746
1312165170020,18.6928
1312165230020,18.7022
1312165290020,18.6068
1312165350020,18.5830
1312165410020,18.6226
1312165470020,18.5660
1312165530020,18.5465
1312165590020,18.5496
1312165650020,18.5714
1312165710020,18.5677
1312165770020,18.5578
1312165830020,18.6002
1312165890020,18.5541
1312165950020,18.5845
1312166010020,18.6798
1312166070020,18.6567
1312166130020,18.6251
1312166190020,18.5691
1312166250020,18.5968
1312166310020,18.6462
1312166370020,18.6592
1312166430020,18.6828
1312166490020,18.6544
1312166550020,18.6329
1312166610020,18.5908
1312166670020,18.6215
1312166730020,18.5532
1312166790020,18.5722
1312166850020,18.5671
1312166910020,18.5346
1312166970020,18.5714
1312167030020,18.5249
1312167090020,18.5586
1312167150020,18.5882
1312167210020,18.5693
1312167270020,18.5224
1312167330020,18.5641
1312167390020,18.5698
1312167450020,18.5282
1312167510020,18.4806
1312167570020,18.5337
1312167630029,18.5181
1312167690029,18.5182
1312167750029,18.5261
1312167810029,18.5886
1312167870029,18.5909
1312167930029,18.5411
1312167990029,18.5437
1312168050029,18.5222
1312168110029,18.5495
1312168170029,18.6054
1312168230029,18.7076
1312168290029,18.6994
1312168350029,18.7068
1312168410029,18.5773
1312168470029,18.6459
1312168530029,18.6176
1312168590029,18.6777
1312168650029,18.7114
1312168710029,18.7199
1312168770029,18.6659
1312168830029,18.6860
1312168890029,18.6087
1312168950029,18.6444
1312169010029,18.7164
1312169070029,18.6232
1312169130029,18.6137
1312169190029,18.6239
1312169250029,18.6030
1312169310029,18.6539
1312169370029,18.5950
1312169430029,18.5819
1312169490029,18.6076
1312169550029,18.5752
1312169610029,18.5704
1312169670029,18.5806
1312169730029,18.5552
1312169790029,18.5359
1312169850029,18.6442
1312169910029,18.7247
1312169970029,18.6048
1312170030029,18.5817
1312170090029,18.6228
1312170150029,18.6253
1312170210029,18.5865
1312170270029,18.5402
1312170330029,18.5660
1312170390029,18.6179
1312170450029,18.6120
1312170510029,18.6425
1312170570029,18.6144
1312170630029,18.6211
1312170690029,18.6350
1312170750029,18.6729
1312170810029,18.6601
1312170870029,18.6648
1312170930029,18.6658
1312170990029,18.6856
1312171050029,18.6339
1312171110029,18.6656
1312171170029,18.6910
1312171230039,18.6305
1312171290039,18.6389
1312171350039,18.6298
1312171410039,18.5786
1312171470039,18.6190
1312171530039,18.5904
1312171590039,18.6079
1312171650039,18.5317
1312171710039,18.6388
1312171770039,18.5962
1312171830039,18.6921
1312171890039,18.6134
1312171950039,18.7053
1312172010039,18.6924
1312172070039,18.6727
1312172130039,18.7254
1312172190039,18.6527
1312172250039,18.5963
1312172310039,18.5611
1312172370039,18.6073
1312172430039,18.6432
1312172490039,18.6362
1312172550039,18.6294
1312172610039,18.6459
1312172670039,18.6542
1312172730039,18.7065
1312172790039,18.6739
1312172850039,18.6501
1312172910039,18.7196
1312172970039,18.7118
1312173030039,18.6438
1312173090039,18.6426
1312173150039,18.6279
1312173210039,18.7032
1312173270039,18.7030
1312173330039,18.6965
1312173390039,18.7182
1312173450039,18.6671
1312173510039,18.6601
1312173570039,18.5890
1312173630039,18.6494
1312173690039,18.6441
1312173750039,18.5411
1312173810039,18.5564
1312173870039,18.5951
1312173930039,18.5652
1312173990039,18.6083
1312174050039,18.6469
1312174110039,18.6020
1312174170039,18.6261
1312174230039,18.6523
1312174290039,18.6642
1312174350039,18.5746
1312174410039,18.5986
1312174470039,18.5992
1312174530039,18.5679
1312174590039,18.6856
1312174650039,18.6309
1312174710039,18.6176
1312174770039,18.7202
1312174830048,18.7027
1312174890048,18.6740
1312174950048,18.6643
1312175010048,18.7083
1312175070048,18.6195
1312175130048,18.6162
1312175190048,18.5706
1312175250048,18.6114
1312175310048,18.6223
1312175370048,18.5958
1312175430048,18.6545
1312175490048,18.6544
1312175550048,18.6235
1312175610048,18.6963
1312175670048,18.6542
1312175730048,18.6474
1312175790048,18.6763
1312175850048,18.6544
1312175910048,18.6207
1312175970048,18.5950
1312176030048,18.6249
1312176090048,18.6333
1312176150048,18.6704
1312176210048,18.6635
1312176270048,18.6215
1312176330048,18.6505
1312176390048,18.7144
1312176450048,18.6491
1312176510048,18.6368
1312176570048,18.6347
1312176630048,18.6754
1312176690048,18.6247
1312176750048,18.6695
1312176810048,18.6909
1312176870048,18.6562
1312176930048,18.6351
1312176990048,18.5902
1312177050048,18.6038
1312177110048,18.6123
1312177170048,18.6853
1312177230048,18.6440
1312177290048,18.6213
1312177350048,18.6105
1312177410048,18.5666
1312177470048,18.6302
1312177530048,18.6129
1312177590048,18.5988
1312177650048,18.5812
1312177710048,18.5988
1312177770048,18.5549
1312177830048,18.5896
1312177890048,18.5485
1312177950048,18.5491
1312178010048,18.5900
1312178070048,18.5898
1312178130048,18.5556
1312178190048,18.5887
1312178250048,18.5306
1312178310048,18.5610
1312178370048,18.6023
1312178430057,18.5528
1312178490057,18.5575
1312178550057,18.5758
1312178610057,18.5406
1312178670057,18.5928
1312178730057,18.5954
1312178790057,18.5560
1312178850057,18.5931
1312178910057,18.5810
1312178970057,18.6618
1312179030057,18.6908
1312179090057,18.6448
1312179150057,18.6791
1312179210057,18.7654
1312179270057,18.7090
1312179330057,18.6860
1312179390057,18.7050
1312179450057,18.7280
1312179510057,18.7104
1312179570057,18.6685
1312179630057,18.6743
1312179690057,18.6662
1312179750057,18.7564
1312179810057,18.7573
1312179870057,18.6925
1312179930057,18.7202
1312179990057,18.7197
1312180050057,18.7510
1312180110057,18.7460
1312180170057,18.6677
1312180230057,18.6447
1312180290057,18.6057
1312180350057,18.6548
1312180410057,18.6280
1312180470057,18.6588
1312180530057,18.7376
1312180590057,18.7077
1312180650057,18.6545
1312180710057,18.6642
1312180770057,18.6382
1312180830057,18.6474
1312180890057,18.6638
1312180950057,18.6294
1312181010057,18.6454
1312181070057,18.6762
1312181130057,18.6458
1312181190057,18.6817
1312181250057,18.7141
1312181310057,18.6889
1312181370057,18.6602
1312181430057,18.6403
1312181490057,18.6436
1312181550057,18.5926
1312181610057,18.5764
1312181670057,18.5957
1312181730057,18.6473
1312181790057,18.6915
1312181850057,18.7130
1312181910057,18.6606
1312181970057,18.6410
1312182030066,18.6953
1312182090066,18.7419
1312182150066,18.7406
1312182210066,18.7196
1312182270066,18.7321
1312182330066,18.7423
1312182390066,18.7359
1312182450066,18.7375
1312182510066,18.7429
1312182570066,18.7143
1312182630066,18.7552
1312182690066,18.7295
1312182750066,18.7080
1312182810066,18.6628
1312182870066,18.6494
1312182930066,18.6196
1312182990066,18.6656
1312183050066,18.6084
1312183110066,18.6168
1312183170066,18.6611
1312183230066,18.7817
1312183290066,18.8295
1312183350066,18.8412
1312183410066,18.9611
1312183470066,18.9326
1312183530066,18.9196
1312183590066,18.9667
1312183650066,19.1928
1312183710066,19.2179
1312183770066,19.3999
1312183830066,19.4023
1312183890066,19.4602
1312183950066,19.3759
1312184010066,19.3123
1312184070066,19.1634
1312184130066,19.0281
1312184190066,18.9608
1312184250066,18.9452
1312184310066,18.8594
1312184370066,18.8539
1312184430066,18.7635
1312184490066,18.7698
1312184550066,18.8029
1312184610066,18.8075
1312184670066,18.7748
1312184730066,18.9008
1312184790066,18.8553
1312184850066,18.8784
1312184910066,18.9135
1312184970066,18.8693
1312185030066,18.7757
1312185090066,18.7923
1312185150066,18.8034
1312185210066,18.8055
1312185270066,18.8389
1312185330066,18.8173
1312185390066,18.8270
1312185450066,18.7356
1312185510066,18.7714
1312185570066,18.7542
1312185630076,18.8480
1312185690076,18.7925
1312185750076,18.8128
1312185810076,18.8061
1312185870076,18.8168
1312185930076,18.7790
1312185990076,18.7705
1312186050076,18.7385
1312186110076,18.7340
1312186170076,18.7474
1312186230076,18.7740
1312186290076,18.7504
1312186350076,18.8070
1312186410076,18.9003
1312186470076,18.8506
1312186530076,18.7901
1312186590076,18.7601
1312186650076,18.7320
1312186710076,18.7566
1312186770076,18.6783
1312186830076,18.6488
1312186890076,18.6489
1312186950076,18.6072
1312187010076,18.6901
1312187070076,18.6595
1312187130076,18.7365
1312187190076,18.7534
1312187250076,18.7372
1312187310076,18.7123
1312187370076,18.6600
1312187430076,18.6750
1312187490076,18.6101
1312187550076,18.6907
1312187610076,18.8088
1312187670076,18.6109
1312187730076,18.5772
1312187790076,18.5520
1312187850076,18.7414
1312187910076,18.5713
1312187970076,18.6580
1312188030076,18.6323
1312188090076,18.6652
1312188150076,18.6333
1312188210076,18.6539
1312188270076,18.6395
1312188330076,18.5865
1312188390076,18.5549
1312188450076,18.6469
1312188510076,18.6160
1312188570076,18.6964
1312188630076,18.6558
1312188690076,18.7285
1312188750076,18.6668
1312188810076,18.6342
1312188870076,18.6138
1312188930076,18.6441
1312188990076,18.6162
1312189050076,18.6919
1312189110076,18.6372
1312189170076,18.6157
1312189230085,18.5801
1312189290085,18.5633
1312189350085,18.6289
1312189410085,18.6132
1312189470085,18.6569
1312189530085,18.5989
1312189590085,18.6086
1312189650085,18.6342
1312189710085,18.6426
1312189770085,18.6370
1312189830085,18.6142
1312189890085,18.6355
1312189950085,18.6396
1312190010085,18.7657
1312190070085,18.8230
1312190130085,18.7831
1312190190085,18.7098
1312190250085,18.7031
1312190310085,18.6657
1312190370085,18.6448
1312190430085,18.6404
1312190490085,18.6042
1312190550085,18.6579
1312190610085,18.6702
1312190670085,18.6157
1312190730085,18.6876
1312190790085,18.6571
1312190850085,18.5926
1312190910085,18.6344
1312190970085,18.6674
1312191030085,18.6735
1312191090085,18.6770
1312191150085,18.5876
1312191210085,18.6303
1312191270085,18.6472
1312191330085,18.6411
1312191390085,18.6278
1312191450085,18.5975
1312191510085,18.6203
1312191570085,18.6373
1312191630085,18.6160
1312191690085,18.6325
1312191750085,18.6703
1312191810085,18.6629
1312191870085,18.7661
1312191930085,18.7748
1312191990085,18.7139
1312192050085,18.7265
1312192110085,18.7612
1312192170085,18.7516
1312192230085,18.6825
1312192290085,18.6463
1312192350085,18.6608
1312192410085,18.6336
1312192470085,18.6339
1312192530085,18.6830
1312192590085,18.7184
1312192650085,18.6815
1312192710085,18.6628
1312192770085,18.6797
1312192830094,18.6831
1312192890094,18.5816
1312192950094,18.6448
1312193010094,18.6175
1312193070094,18.5609
1312193130094,18.6169
1312193190094,18.6655
1312193250094,18.5941
1312193310094,18.6199
1312193370094,18.5721
1312193430094,18.5806
1312193490094,18.6400
1312193550094,18.5564
1312193610094,18.5588
1312193670094,18.6119
1312193730094,18.5556
1312193790094,18.5434
1312193850094,18.5740
1312193910094,18.6313
1312193970094,18.5911
1312194030094,18.5791
1312194090094,18.5750
1312194150094,18.6015
1312194210094,18.6324
1312194270094,18.5871
1312194330094,18.5984
1312194390094,18.5271
1312194450094,18.5624
1312194510094,18.6259
1312194570094,18.5832
1312194630094,18.6767
1312194690094,18.6754
1312194750094,18.7125
1312194810094,18.7276
1312194870094,18.7759
1312194930094,18.7604
1312194990094,18.6939
1312195050094,18.6974
1312195110094,18.6757
1312195170094,18.6945
1312195230094,18.6370
1312195290094,18.7222
1312195350094,18.6876
1312195410094,18.6862
1312195470094,18.6792
1312195530094,18.6940
1312195590094,18.6430
1312195650094,18.6648
1312195710094,18.6725
1312195770094,18.5934
1312195830094,18.7221
1312195890094,18.6725
1312195950094,18.6506
1312196010094,18.7523
1312196070094,18.7227
1312196130094,18.7347
1312196190094,18.7543
1312196250094,18.7249
1312196310094,18.7316
1312196370094,18.6624
1312196430104,18.7311
1312196490104,18.7197
1312196550104,18.7123
1312196610104,18.7164
1312196670104,18.6921
1312196730104,18.6607
1312196790104,18.7020
1312196850104,18.6864
1312196910104,18.7407
1312196970104,18.6858
1312197030104,18.6572
1312197090104,18.5832
1312197150104,18.5995
1312197210104,18.5599
1312197270104,18.5833
1312197330104,18.5895
1312197390104,18.5507
1312197450104,18.6026
1312197510104,18.6116
1312197570104,18.6000
1312197630104,18.5910
1312197690104,18.6162
1312197750104,18.6039
1312197810104,18.6533
1312197870104,18.5518
1312197930104,18.5646
1312197990104,18.6386
1312198050104,18.6468
1312198110104,18.6672
1312198170104,18.6254
1312198230104,18.6469
1312198290104,18.6683
1312198350104,18.6873
1312198410104,18.7149
1312198470104,18.7033
1312198530104,18.6684
1312198590104,18.7109
1312198650104,18.6750
1312198710104,18.6359
1312198770104,18.6155
1312198830104,18.6589
1312198890104,18.6288
1312198950104,18.6795
1312199010104,18.6717
1312199070104,18.6662
1312199130104,18.7071
1312199190104,18.6834
1312199250104,18.6612
1312199310104,18.6722
1312199370104,18.7032
1312199430104,18.6651
1312199490104,18.6976
1312199550104,18.6368
1312199610104,18.7027
1312199670104,18.6377
1312199730104,18.6828
1312199790104,18.6708
1312199850104,18.6253
1312199910104,18.6387
1312199970104,18.5926
1312200030113,18.6413
1312200090113,18.6262
1312200150113,18.6645
1312200210113,18.7077
1312200270113,18.6314
1312200330113,18.6426
1312200390113,18.6019
1312200450113,18.6140
1312200510113,18.5965
1312200570113,18.5896
1312200630113,18.6221
1312200690113,18.6814
1312200750113,18.5979
1312200810113,18.6223
1312200870113,18.6634
1312200930113,18.6358
1312200990113,18.6508
1312201050113,18.5991
1312201110113,18.5969
1312201170113,18.5649
1312201230113,18.6047
1312201290113,18.5462
1312201350113,18.5617
1312201410113,18.5250
1312201470113,18.5403
1312201530113,18.5588
1312201590113,18.5886
1312201650113,18.5453
1312201710113,18.5937
1312201770113,18.5821
1312201830113,18.5671
1312201890113,18.5291
1312201950113,18.5320
1312202010113,18.5587
1312202070113,18.5787
1312202130113,18.6070
1312202190113,18.5349
1312202250113,18.5938
1312202310113,18.6707
1312202370113,18.6552
1312202430113,18.6520
1312202490113,18.6625
1312202550113,18.6669
1312202610113,18.6807
1312202670113,18.6054
1312202730113,18.5833
1312202790113,18.6171
1312202850113,18.6533
1312202910113,18.6415
1312202970113,18.6838
1312203030113,18.7921
1312203090113,18.6753
1312203150113,18.6909
1312203210113,18.6520
1312203270113,18.5990
1312203330113,18.6288
1312203390113,18.6226
1312203450113,18.6609
1312203510113,18.5751
1312203570113,18.5850
1312203630123,18.6384
1312203690123,18.5682
1312203750123,18.5600
1312203810123,18.6217
1312203870123,18.5869
1312203930123,18.5455
1312203990123,18.5747
1312204050123,18.5893
1312204110123,18.5473
1312204170123,18.5729
1312204230123,18.5934
1312204290123,18.6210
1312204830123,18.6840
1312204890123,18.6604
1312204950123,18.5847
1312205010123,18.6045
1312205070123,18.6093
1312205130123,18.6439
1312205190123,18.6335
1312205250123,18.5969
1312205310123,18.6340
1312205370123,18.5660
1312205430123,18.5593
1312205490123,18.6737
1312205550123,18.5795
1312205610123,18.6205
1312205670123,18.5933
1312205730123,18.6336
1312205790123,18.6204
1312205850123,18.6030
1312205910123,18.5806
1312205970122,18.6077
1312206030122,18.5662
1312206090122,18.5933
1312206150123,18.5916
1312206210123,18.6348
1312206270123,18.5945
1312206330123,18.5727
1312206390123,18.6255
1312206450123,18.5922
1312206510123,18.6371
1312206570123,18.5987
1312206630123,18.6490
1312206690123,18.5728
1312206750123,18.5732
1312206810123,18.6628
1312206870123,18.6850
1312206930123,18.6766
1312206990123,18.6800
1312207050123,18.7074
1312207110123,18.7034
1312207170123,18.7339
1312207230132,18.7469
1312207290132,18.7245
1312207350132,18.6961
1312207410132,18.6492
1312207470132,18.6320
1312207530132,18.5774
1312207590132,18.5836
1312207650132,18.6054
1312207710132,18.5995
1312207770132,18.5741
1312207830132,18.5308
1312207890132,18.5321
1312207950132,18.5264
1312208010132,18.5530
1312208070132,18.5528
1312208130132,18.5618
1312208190132,18.5371
1312208250132,18.5931
1312208310132,18.5163
1312208370132,18.5222
1312208430132,18.4413
1312208490132,18.4957
1312208550132,18.5176
1312208610132,18.5252
1312208670132,18.5282
1312208730132,18.5557
1312208790132,18.5679
1312208850132,18.5553
1312208910132,18.5327
1312208970132,18.4744
1312209030132,18.4781
1312209090132,18.4800
1312209150132,18.5504
1312209210132,18.5075
1312209270132,18.5192
1312209330132,18.5059
1312209390132,18.4654
1312209450132,18.5545
1312209510132,18.5295
1312209570132,18.4699
1312209630132,18.5995
1312209690132,18.5648
1312209750132,18.5393
1312209810132,18.5398
1312209870132,18.5672
1312209930132,18.5583
1312209990132,18.5900
1312210050132,18.6446
1312210110132,18.6179
1312210170132,18.6913
1312210230132,18.6676
1312210290132,18.6407
1312210350132,18.6554
1312210410132,18.6960
1312210470132,18.6488
1312210530132,18.6564
1312210590132,18.5751
1312210650132,18.5837
1312210710132,18.6120
1312210770132,18.6678
1312210830142,18.5915
1312210890142,18.5684
1312210950142,18.5370
1312211010142,18.6032
1312211070142,18.6065
1312211130142,18.6128
1312211190142,18.4967
1312211250142,18.5777
1312211310142,18.5942
1312211370142,18.5837
1312211430142,18.6087
1312211490142,18.5487
1312211550142,18.5469
1312211610142,18.5656
1312211670142,18.5780
1312211730142,18.5240
1312211790142,18.5259
1312211850142,18.5083
1312211910142,18.5590
1312211970142,18.5534
1312212030142,18.5844
1312212090142,18.5644
1312212150142,18.5546
1312212210142,18.5523
1312212270142,18.5920
1312212330142,18.6464
1312212390142,18.5785
1312212450142,18.5078
1312212510142,18.5019
1312212570142,18.4609
1312212630142,18.5077
1312212690142,18.5523
1312212750142,18.5883
1312212810142,18.6071
1312212870142,18.6145
1312212930142,18.6524
1312212990142,18.6614
1312213050142,18.6616
1312213110142,18.6183
1312213170142,18.6125
1312213230142,18.6196
1312213290142,18.5695
1312213350142,18.5218
1312213410142,18.5944
1312213470142,18.5063
1312213530142,18.5888
1312213590142,18.5705
1312213650142,18.5323
1312213710142,18.4904
1312213770142,18.4751
1312213830142,18.4897
1312213890142,18.5174
1312213950142,18.4963
1312214010142,18.5586
1312214070142,18.5573
1312214130142,18.5055
1312214190142,18.5606
1312214250142,18.6160
1312214310142,18.5842
1312214370142,18.6303
1312214430152,18.5707
1312214490152,18.5941
1312214550152,18.6364
1312214610152,18.6551
1312214670152,18.6357
1312214730152,18.6462
1312214790152,18.6038
1312214850152,18.5374
1312214910152,18.5588
1312214970152,18.4973
1312215030152,18.5023
1312215090152,18.4943
1312215150152,18.5723
1312215210152,18.4671
1312215270152,18.5128
1312215330152,18.5486
1312215390152,18.5240
1312215450152,18.5358
1312215510152,18.5036
1312215570152,18.5876
1312215630152,18.6532
1312215690152,18.6083
1312215750152,18.6547
1312215810152,18.6345
1312215870152,18.6506
1312215930152,18.5717
1312215990152,18.6286
1312216050152,18.6325
1312216110152,18.6317
1312216170152,18.5821
1312216230152,18.5432
1312216290152,18.5426
1312216350152,18.5499
1312216410152,18.5579
1312216470152,18.5893
1312216530152,18.5432
1312216590152,18.5958
1312216650152,18.6237
1312216710152,18.5677
1312216770152,18.5466
1312216830152,18.5405
1312216890152,18.5199
1312216950152,18.5602
1312217010152,18.4960
1312217070152,18.5230
1312217130152,18.5752
1312217190152,18.5447
1312217250152,18.5427
1312217310152,18.4909
1312217370152,18.4923
1312217430152,18.5415
1312217490152,18.5475
1312217550152,18.5262
1312217610152,18.5659
1312217670152,18.6341
1312217730152,18.6032
1312217790152,18.6292
1312217850152,18.5826
1312217910152,18.5748
1312217970152,18.4977
1312218030163,18.5574
1312218090163,18.5003
1312218150163,18.5012
1312218210163,18.5049
1312218270163,18.5830
1312218330163,18.5867
1312218390163,18.5508
1312218450163,18.6231
1312218510163,18.5621
1312218570163,18.6041
1312218630163,18.6105
1312218690163,18.6002
1312218750163,18.5737
1312218810163,18.5531
1312218870163,18.7958
1312218930163,18.8197
1312218990163,18.7729
1312219050163,18.6699
1312219110163,18.5967
1312219170163,18.6045
1312219230163,18.5651
1312219290163,18.6010
1312219350163,18.6128
1312219410163,18.5869
1312219470163,18.5532
1312219530163,18.5399
1312219590163,18.5665
1312219650163,18.5457
1312219710163,18.5691
1312219770163,18.5786
1312219830163,18.5855
1312219890163,18.5966
1312219950163,18.6140
1312220010163,18.5887
1312220070163,18.5776
1312220130163,18.6459
1312220190163,18.6276
1312220250163,18.5604
1312220310163,18.5660
1312220370163,18.5053
1312220430163,18.4905
1312220490163,18.5121
1312220550163,18.4773
1312220610163,18.4912
1312220670163,18.4986
1312220730163,18.5378
1312220790163,18.5302
1312220850163,18.5450
1312220910163,18.5642
1312220970163,18.5875
1312221030163,18.5787
1312221090163,18.5415
1312221150163,18.5410
1312221210163,18.5437
1312221270163,18.5885
1312221330163,18.5385
1312221390163,18.5633
1312221450163,18.5325
1312221510163,18.5837
1312221570163,18.5563
1312221630174,18.6054
1312221690174,18.5112
1312221750174,18.5554
1312221810174,18.6294
1312221870174,18.5541
1312221930174,18.5073
1312221990174,18.5267
1312222050174,18.5682
1312222110174,18.5578
1312222170174,18.5090
1312222230174,18.5408
1312222290174,18.5066
1312222350174,18.4795
1312222410174,18.4712
1312222470174,18.5428
1312222530174,18.4974
1312222590174,18.5703
1312222650174,18.5305